{"data":{"norad_id":59376,"epoch":"2026-09-21T21:03:04.286016Z","epoch_age_seconds":43258,"freshness":"FRESH","line1":"1 59376U 24062C   26264.87713294 -.00001421  00000+0 -30942-4 0  9996","line2":"2 59376  53.1607  61.1992 0000846  85.7950 274.3150 15.34384460139715","mean_motion":15.3438446,"eccentricity":8.46e-5,"inclination_deg":53.1607,"raan_deg":61.1992,"arg_perigee_deg":85.795,"mean_anomaly_deg":274.315,"bstar":-3.0942e-5,"rev_number":13971,"period_min":93.848708556394,"perigee_km":462.17068975996,"apogee_km":463.32816774371,"semimajor_km":6840.8864287518,"source":"CELESTRAK","updated_at":"2026-09-22T09:00:48.908220Z"}}